User: anonymous   Login
Location: Rostock
(54.0884°N, 12.1234°E)
Time: 15:53:29
(UTC+01:00)
Language:

ISS - Orbit

View from above orbital plane
View from above orbital plane
View from above satellite
View from above satellite

Ground track
Ground track

The orbit data is extracted from the following two-line orbital elements,

1 25544U 98067A   18054.51610893  .00016717  00000-0  10270-3 0  9020
2 25544  51.6370 225.3935 0003200 126.1246 234.0203 15.54143113 20835
Epoch (UTC): 23 February 2018 12:23:11
Eccentricity: 0.0003200
inclination: 51.6370°
perigee height: 402 km
apogee height: 407 km
right ascension of ascending node: 225.3935°
argument of perigee: 126.1246°
revolutions per day: 15.54143113
mean anomaly at epoch: 234.0203°
orbit number at epoch: 2083

The dashed part of the orbit path shows where the satellite is in the earth's shadow,  

DLR